EN

Hourly Weather Abdukarim

Today, 12 June, Saturday

Time Temperature Precipitation Wind Pressure Humidity
00:00 +25°C° 0 mm 2 mps 692 mmHg 29%
01:00 +25°C° 0 mm 2 mps 692 mmHg 29%
02:00 +24°C° 0 mm 2 mps 692 mmHg 30%
03:00 +24°C° 0 mm 2 mps 692 mmHg 30%
04:00 +23°C° 0 mm 2 mps 692 mmHg 30%
05:00 +23°C° 0 mm 2 mps 692 mmHg 31%
06:00 +25°C° 0 mm 2 mps 692 mmHg 27%
07:00 +27°C° 0 mm 2 mps 693 mmHg 24%
08:00 +29°C° 0 mm 2 mps 693 mmHg 20%
09:00 +30°C° 0 mm 3 mps 694 mmHg 19%
10:00 +33°C° 0 mm 3 mps 694 mmHg 17%
11:00 +34°C° 0 mm 4 mps 694 mmHg 16%
12:00 +35°C° 0 mm 4 mps 694 mmHg 15%
13:00 +36°C° 0 mm 4 mps 694 mmHg 14%
14:00 +36°C° 0 mm 4 mps 693 mmHg 13%
15:00 +36°C° 0 mm 4 mps 693 mmHg 13%
16:00 +36°C° 0 mm 5 mps 693 mmHg 13%
17:00 +36°C° 0 mm 5 mps 693 mmHg 13%
18:00 +34°C° 0 mm 4 mps 693 mmHg 15%
19:00 +32°C° 0 mm 4 mps 693 mmHg 17%
20:00 +29°C° 0 mm 3 mps 693 mmHg 20%
21:00 +28°C° 0 mm 3 mps 693 mmHg 21%
22:00 +27°C° 0 mm 2 mps 693 mmHg 23%
23:00 +26°C° 0 mm 2 mps 693 mmHg 24%

Tomorrow, 13 June, Sunday

Time Temperature Precipitation Wind Pressure Humidity
00:00 +26°C° 0 mm 2 mps 693 mmHg 27%
01:00 +25°C° 0 mm 2 mps 693 mmHg 29%
02:00 +24°C° 0 mm 2 mps 693 mmHg 31%
03:00 +24°C° 0 mm 2 mps 694 mmHg 32%
04:00 +24°C° 0 mm 2 mps 694 mmHg 34%
05:00 +23°C° 0 mm 2 mps 694 mmHg 36%
06:00 +25°C° 0 mm 3 mps 694 mmHg 33%
07:00 +27°C° 0 mm 3 mps 695 mmHg 29%
08:00 +29°C° 0 mm 4 mps 695 mmHg 26%
09:00 +30°C° 0 mm 5 mps 695 mmHg 24%
10:00 +32°C° 0 mm 6 mps 695 mmHg 21%
11:00 +33°C° 0 mm 7 mps 695 mmHg 19%
12:00 +34°C° 0 mm 7 mps 695 mmHg 18%
13:00 +34°C° 0 mm 6 mps 695 mmHg 16%
14:00 +35°C° 0 mm 6 mps 695 mmHg 15%
15:00 +34°C° 0 mm 6 mps 695 mmHg 14%
16:00 +34°C° 0 mm 6 mps 695 mmHg 14%
17:00 +34°C° 0 mm 6 mps 694 mmHg 13%
18:00 +32°C° 0 mm 5 mps 694 mmHg 14%
19:00 +29°C° 0 mm 4 mps 694 mmHg 15%
20:00 +27°C° 0 mm 3 mps 694 mmHg 16%
21:00 +26°C° 0 mm 4 mps 694 mmHg 17%
22:00 +25°C° 0 mm 4 mps 694 mmHg 18%
23:00 +23°C° 0 mm 4 mps 694 mmHg 19%

Day after tomorrow, 14 June, Monday

Time Temperature Precipitation Wind Pressure Humidity
00:00 +22°C° 0 mm 4 mps 694 mmHg 19%
01:00 +21°C° 0 mm 3 mps 693 mmHg 19%
02:00 +20°C° 0 mm 3 mps 693 mmHg 20%
03:00 +19°C° 0 mm 3 mps 693 mmHg 20%
04:00 +19°C° 0 mm 3 mps 693 mmHg 21%
05:00 +18°C° 0 mm 2 mps 693 mmHg 21%
06:00 +20°C° 0 mm 3 mps 693 mmHg 20%
07:00 +22°C° 0 mm 3 mps 693 mmHg 19%
08:00 +23°C° 0 mm 4 mps 694 mmHg 18%
09:00 +26°C° 0 mm 4 mps 694 mmHg 16%
10:00 +27°C° 0 mm 4 mps 694 mmHg 15%
11:00 +29°C° 0 mm 5 mps 694 mmHg 13%
12:00 +30°C° 0 mm 5 mps 694 mmHg 12%
13:00 +32°C° 0 mm 6 mps 693 mmHg 11%
14:00 +33°C° 0 mm 6 mps 693 mmHg 10%
15:00 +33°C° 0 mm 6 mps 693 mmHg 10%
16:00 +33°C° 0 mm 5 mps 693 mmHg 9%
17:00 +33°C° 0 mm 5 mps 693 mmHg 9%
18:00 +30°C° 0 mm 4 mps 693 mmHg 11%
19:00 +28°C° 0 mm 3 mps 693 mmHg 13%
20:00 +26°C° 0 mm 2 mps 692 mmHg 14%
21:00 +25°C° 0 mm 3 mps 693 mmHg 16%
22:00 +24°C° 0 mm 3 mps 693 mmHg 17%
23:00 +22°C° 0 mm 3 mps 693 mmHg 18%

15 June, Tuesday

Time Temperature Precipitation Wind Pressure Humidity
00:00 +21°C° 0 mm 3 mps 692 mmHg 19%
01:00 +20°C° 0 mm 3 mps 692 mmHg 21%
02:00 +19°C° 0 mm 3 mps 692 mmHg 22%
03:00 +18°C° 0 mm 3 mps 692 mmHg 23%
04:00 +17°C° 0 mm 2 mps 692 mmHg 24%
05:00 +17°C° 0 mm 2 mps 692 mmHg 25%
06:00 +19°C° 0 mm 2 mps 692 mmHg 23%
07:00 +21°C° 0 mm 3 mps 693 mmHg 21%
08:00 +24°C° 0 mm 3 mps 693 mmHg 19%
09:00 +25°C° 0 mm 3 mps 693 mmHg 17%
10:00 +27°C° 0 mm 3 mps 693 mmHg 15%
11:00 +29°C° 0 mm 4 mps 693 mmHg 13%
12:00 +30°C° 0 mm 4 mps 693 mmHg 12%
13:00 +32°C° 0 mm 4 mps 693 mmHg 11%
14:00 +33°C° 0 mm 5 mps 693 mmHg 10%
15:00 +33°C° 0 mm 5 mps 693 mmHg 9%
16:00 +33°C° 0 mm 5 mps 693 mmHg 9%
17:00 +33°C° 0 mm 5 mps 693 mmHg 8%
18:00 +30°C° 0 mm 4 mps 692 mmHg 11%
19:00 +27°C° 0 mm 3 mps 692 mmHg 14%
20:00 +25°C° 0 mm 2 mps 692 mmHg 17%
21:00 +24°C° 0 mm 2 mps 692 mmHg 17%
22:00 +23°C° 0 mm 2 mps 692 mmHg 18%
23:00 +23°C° 0 mm 2 mps 691 mmHg 19%

16 June, Wednesday

Time Temperature Precipitation Wind Pressure Humidity
00:00 +21°C° 0 mm 2 mps 691 mmHg 19%
01:00 +20°C° 0 mm 2 mps 691 mmHg 20%
02:00 +20°C° 0 mm 2 mps 691 mmHg 20%
03:00 +19°C° 0 mm 2 mps 691 mmHg 22%
04:00 +19°C° 0 mm 2 mps 691 mmHg 23%
05:00 +18°C° 0 mm 2 mps 691 mmHg 25%
06:00 +21°C° 0 mm 2 mps 692 mmHg 23%
07:00 +24°C° 0 mm 2 mps 692 mmHg 22%
08:00 +26°C° 0 mm 2 mps 693 mmHg 20%
09:00 +28°C° 0 mm 3 mps 693 mmHg 17%
10:00 +29°C° 0 mm 4 mps 693 mmHg 15%
11:00 +32°C° 0 mm 4 mps 693 mmHg 13%
12:00 +33°C° 0 mm 4 mps 693 mmHg 11%
13:00 +34°C° 0 mm 5 mps 693 mmHg 10%
14:00 +35°C° 0 mm 5 mps 693 mmHg 9%
15:00 +35°C° 0 mm 5 mps 693 mmHg 8%
16:00 +35°C° 0 mm 5 mps 693 mmHg 8%
17:00 +35°C° 0 mm 5 mps 693 mmHg 7%
18:00 +33°C° 0 mm 4 mps 693 mmHg 9%
19:00 +29°C° 0 mm 3 mps 693 mmHg 10%
20:00 +27°C° 0 mm 2 mps 692 mmHg 12%
21:00 +26°C° 0 mm 2 mps 692 mmHg 13%
22:00 +26°C° 0 mm 2 mps 692 mmHg 13%
23:00 +25°C° 0 mm 2 mps 692 mmHg 14%

17 June, Thursday

Time Temperature Precipitation Wind Pressure Humidity
00:00 +24°C° 0 mm 2 mps 692 mmHg 15%
01:00 +24°C° 0 mm 2 mps 692 mmHg 17%
02:00 +23°C° 0 mm 1 mps 692 mmHg 18%
03:00 +23°C° 0 mm 2 mps 692 mmHg 19%
04:00 +21°C° 0 mm 2 mps 692 mmHg 21%
05:00 +21°C° 0 mm 2 mps 692 mmHg 22%
06:00 +24°C° 0 mm 2 mps 693 mmHg 21%
07:00 +26°C° 0 mm 3 mps 693 mmHg 20%
08:00 +28°C° 0 mm 3 mps 694 mmHg 19%
09:00 +29°C° 0 mm 4 mps 694 mmHg 18%
10:00 +32°C° 0 mm 5 mps 694 mmHg 16%
11:00 +33°C° 0 mm 6 mps 694 mmHg 14%
12:00 +34°C° 0 mm 6 mps 694 mmHg 14%
13:00 +35°C° 0 mm 6 mps 694 mmHg 13%
14:00 +35°C° 0 mm 6 mps 693 mmHg 12%
15:00 +35°C° 0 mm 5 mps 693 mmHg 12%
16:00 +35°C° 0 mm 5 mps 693 mmHg 11%
17:00 +35°C° 0 mm 4 mps 693 mmHg 11%
18:00 +33°C° 0 mm 4 mps 693 mmHg 12%
19:00 +30°C° 0 mm 3 mps 693 mmHg 14%
20:00 +28°C° 0 mm 2 mps 693 mmHg 15%
21:00 +27°C° 0 mm 2 mps 693 mmHg 16%
22:00 +27°C° 0 mm 2 mps 693 mmHg 16%
23:00 +26°C° 0 mm 2 mps 693 mmHg 17%
Show more